FALCON 9 DEB (47610 NORAD) Tracking and Keplerian Element Data

This shows tracking and keplerian element data for the satellite.

Feedback or suggestion? Click here.




ElementValue
Catalog47610
NameFALCON 9 DEB
Epoch Orbit395
Epoch Day59.79635403
Epoch Year2021
RAAN358.3352
Inclination53.0401
Eccentricity0.0013042
Argument of Perigee294.2875
Mean Anonmoly65.6802
Mean Motion16.22391404
Decay Rate0.01001784
L11 47610U 21009BQ 21059.79635403 .01001784 11878-4 41023-3 0 9997
L22 47610 53.0401 358.3352 0013042 294.2875 65.6802 16.22391404 3955

Live tracking and technical data element details for FALCON 9 DEB (NORAD 47610). FALCON 9 DEB can be tracked NOW for your location showing map with azimuth and elevation plus other details from your city location.

Track the satellite on the map from your city or location and see movement details for azimuth, elevation, latitude, longitude, range, height, and movement on the map or in text.







IsCatalogInMostPopularTable: catalog: 47610, numindb: 4
Update: records affected: 1



GetName: 47610 FALCON 9 DEB

Hit Count: updated at: Mon, 01 Mar 2021 16:47:31 GMT